This is the latest recevied weather packets stored in our database for station/object KC0OOO-WX. If no packets are shown the sender has not sent any weather packets the latest 10 day(s).
| Time | Temp. | Humidity | Pressure | Rain* | Wind** | Luminosity | Snow |
|---|---|---|---|---|---|---|---|
| 1777495472 | 18.33° C | 16% | 1017.9 hPa | 0 mm | - | - | - |
| 1777494871 | 17.22° C | 17% | 1017.9 hPa | 0 mm | - | - | - |
| 1777494271 | 16.67° C | 17% | 1017.9 hPa | 0 mm | - | - | - |
| 1777493671 | 17.22° C | 20% | 1018.3 hPa | 0 mm | - | - | - |
| 1777493071 | 17.22° C | 19% | 1018.3 hPa | 0 mm | - | - | - |
| 1777492471 | 16.67° C | 18% | 1018.3 hPa | 0 mm | - | - | - |
| 1777491871 | 17.78° C | 17% | 1018.6 hPa | 0 mm | - | - | - |
| 1777491271 | 17.22° C | 17% | 1018.6 hPa | 0 mm | - | - | - |
| 1777490671 | 16.67° C | 20% | 1019 hPa | 0 mm | - | - | - |
| 1777490071 | 16.11° C | 19% | 1019 hPa | 0 mm | - | - | - |
| 1777489471 | 16.67° C | 20% | 1019 hPa | 0 mm | - | - | - |
| 1777488871 | 16.67° C | 17% | 1019.3 hPa | 0 mm | - | - | - |
| 1777488271 | 16.11° C | 19% | 1019.3 hPa | 0 mm | - | - | - |
| 1777487671 | 16.11° C | 20% | 1019.3 hPa | 0 mm | - | - | - |
| 1777487071 | 16.11° C | 22% | 1019.3 hPa | 0 mm | - | - | - |
| 1777486471 | 15.56° C | 22% | 1020 hPa | 0 mm | - | - | - |
| 1777485271 | 15° C | 24% | 1020.3 hPa | 0 mm | - | - | - |
| 1777484641 | 15° C | 23% | 1020.3 hPa | 0 mm | - | - | - |
| 1777484041 | 15° C | 24% | 1020.3 hPa | 0 mm | - | - | - |
| 1777483441 | 15° C | 25% | 1020.7 hPa | 0 mm | - | - | - |
| 1777482841 | 15° C | 24% | 1020.7 hPa | 0 mm | - | - | - |
| 1777482211 | 14.44° C | 28% | 1020.7 hPa | 0 mm | - | - | - |
| 1777481611 | 13.33° C | 26% | 1020.7 hPa | 0 mm | - | - | - |
| 1777481011 | 12.78° C | 27% | 1020.7 hPa | 0 mm | - | - | - |
| 1777480411 | 12.78° C | 28% | 1020.7 hPa | 0 mm | - | - | - |
* Rain latest hour (hover to see other rain measurements)
** Current wind speed in m/s (hover to see current wind gust speed)